Wind_Speed
44 43 40 38 36 35 35 28 5 20 32 17 7 13 31 35 29 37 21 19 16 18 13 11 14 14 19 15 23 26 23 11 11 17 17 20 18 19 18 10 13 8 11 12
44 45 44 42 40 41 41 17 12 23 39 12 14 30 37 30 29 29 23 16 16 9 10 8 16 18 12 8 22 23 20 14 13 15 13 7 12 17 14 16 13 14 10 8
47 46 47 48 46 47 46 16 7 15 36 33 26 33 31 28 43 32 29 21 19 15 11 10 3 9 1 9 15 25 21 16 19 15 17 15 19 19 19 18 12 13 16 18
42 48 49 52 51 51 52 24 13 24 13 23 27 23 24 32 32 36 37 26 24 18 11 12 11 4 5 3 4 5 15 23 19 22 18 14 17 18 20 20 19 19 17 19
44 44 51 52 55 56 51 19 18 34 21 34 29 26 27 29 31 30 34 24 25 18 18 12 12 9 6 3 5 10 17 16 22 19 18 18 17 15 17 17 17 18 19 20
43 45 47 54 60 65 32 42 44 28 22 22 20 24 28 33 28 33 37 30 22 23 19 10 14 10 2 1 9 10 12 15 15 16 18 19 16 17 17 18 17 14 17 16
46 47 48 54 64 70 44 41 34 25 13 20 22 26 28 30 35 23 30 33 29 27 25 6 1 2 6 3 14 11 6 13 12 7 2 14 10 14 18 20 19 17 18 17
48 48 49 51 64 71 59 37 43 34 12 17 26 26 26 31 31 26 25 39 27 27 11 8 6 2 4 11 20 18 12 9 7 6 12 14 18 8 12 15 17 17 18 16
50 49 49 49 59 71 67 38 48 33 17 19 28 18 27 19 21 23 32 25 16 25 9 8 15 9 10 11 5 10 13 10 9 4 12 17 13 11 12 14 14 17 17 14
50 49 50 52 55 70 70 41 50 41 23 24 20 8 19 30 23 18 23 27 21 29 11 9 11 12 13 15 17 6 4 4 12 11 7 7 9 8 11 11 13 8 6 8
48 48 49 47 58 70 69 46 51 43 24 8 27 10 21 26 28 16 25 18 16 10 10 8 8 8 12 14 16 19 10 8 5 8 7 9 9 8 11 15 21 8 10 10
48 50 49 44 66 67 68 40 48 40 27 8 7 7 9 20 33 32 28 32 19 14 10 7 8 5 5 12 10 15 15 9 6 8 5 9 21 15 24 17 11 8 9 8
48 52 51 48 62 67 60 46 42 29 18 9 7 11 7 15 23 26 11 31 24 26 29 8 6 7 8 7 11 11 12 15 11 16 18 16 15 15 15 8 11 8 7 8
50 52 53 54 61 66 49 42 44 30 11 4 8 17 14 8 17 28 17 17 24 16 21 8 5 5 11 10 10 12 11 9 11 14 16 18 10 14 14 14 12 12 11 12
54 50 50 57 64 52 42 36 38 30 18 6 13 12 18 16 11 27 21 21 20 18 11 4 6 10 5 6 8 10 14 15 10 8 13 17 19 13 15 15 19 14 13 12
49 49 50 65 60 49 47 17 25 25 11 4 2 5 28 21 18 16 26 28 21 22 17 11 18 20 14 5 11 14 22 20 19 15 12 6 3 6 4 9 11 13 13 13
46 54 68 66 52 42 19 8 19 26 13 2 3 3 7 27 26 21 18 25 23 17 20 12 15 18 10 6 10 11 15 19 21 16 7 10 8 3 7 4 5 8 5 8
55 66 67 55 41 26 15 13 26 30 11 5 2 3 1 11 14 14 24 20 25 10 10 6 10 9 5 8 13 24 24 14 7 9 11 10 2 2 1 0 2 6 7 10
62 57 50 42 27 9 7 9 27 18 6 6 3 2 1 7 14 18 19 22 8 9 7 5 6 6 7 7 12 16 16 23 16 7 7 4 2 3 3 3 6 8 9 12
54 46 18 7 11 13 24 16 11 7 5 6 3 2 3 4 6 5 6 9 5 4 5 12 4 6 14 6 3 5 6 4 2 5 5 4 3 4 5 6 6 9 13 16
20 6 6 21 21 16 3 5 4 5 3 6 5 13 4 7 3 2 5 4 5 7 7 8 5 6 7 4 4 4 4 3 3 0 2 3 5 8 12 13 14 15 19 21
8 16 24 20 5 4 4 4 4 4 4 7 4 7 6 4 5 3 6 3 2 5 11 5 4 4 7 5 5 6 6 7 10 11 12 13 15 14 15 16 17 18 18 19
24 8 4 4 1 3 4 5 3 3 2 4 5 3 5 5 6 2 2 6 3 4 2 2 3 8 9 9 10 13 13 14 16 17 18 18 20 17 15 18 19 21 22 22
4 3 5 2 2 2 4 2 5 4 6 5 6 1 2 4 4 4 4 2 3 4 4 3 2 6 9 10 10 13 15 16 19 21 22 23 23 25 25 25 25 27 30 29
6 4 3 4 4 7 4 3 5 2 7 10 2 3 4 1 1 3 4 3 3 5 3 3 7 10 14 16 18 20 22 24 27 28 29 30 30 31 32 30 30 31 30 26
4 7 2 8 3 4 6 11 5 7 1 3 1 1 1 3 2 3 4 2 4 3 3 10 13 17 18 20 22 25 27 30 32 32 32 33 33 34 34 32 29 26 23 23
4 5 13 11 6 9 6 8 11 10 2 1 1 4 4 1 3 3 4 4 5 10 13 16 19 21 23 25 29 30 31 33 34 33 31 32 31 30 28 28 24 21 19 18
Wind_Direction
254 250 244 234 226 219 212 199 209 186 183 190 202 226 228 236 231 249 240 231 252 236 221 220 222 239 214 217 220 206 222 207 216 212 219 225 223 210 225 236 246 232 250 269
251 244 238 231 220 212 201 192 181 188 180 201 203 228 231 233 248 248 219 206 235 214 205 251 206 237 274 198 222 210 207 224 223 199 193 218 244 240 235 237 247 264 232 256
250 243 235 229 221 208 196 170 174 189 200 213 209 219 218 223 231 256 242 213 228 219 221 222 288 238 259 272 239 217 218 214 222 220 212 204 216 236 232 238 240 247 254 270
247 241 232 226 221 209 194 184 210 187 193 209 225 225 216 214 215 231 250 234 223 213 208 215 216 236 237 266 242 247 221 222 221 234 244 235 220 212 227 238 242 244 254 266
244 242 228 227 216 209 193 188 204 197 211 204 220 221 229 216 219 210 226 235 225 226 226 200 207 255 6 329 210 226 216 224 231 231 235 246 242 239 244 248 238 246 254 254
242 237 233 222 215 203 198 205 203 189 206 195 205 220 217 225 216 221 221 226 240 220 235 114 92 103 182 342 325 247 222 222 227 234 234 236 236 238 250 248 243 251 256 268
240 236 233 226 213 206 199 200 195 210 206 208 210 212 222 219 222 223 221 225 228 231 223 162 194 323 351 295 293 284 262 231 233 205 251 231 236 239 238 246 256 251 251 258
239 231 228 218 215 205 198 196 196 199 205 213 211 210 208 229 226 222 236 223 226 224 221 202 207 15 337 261 272 259 256 265 239 225 226 245 244 217 225 243 256 255 261 264
233 226 222 217 211 201 197 197 191 198 201 222 211 209 203 206 218 219 221 240 225 207 213 206 218 201 207 208 235 256 232 231 239 179 234 238 235 215 224 254 263 256 267 271
224 219 214 213 205 198 194 192 188 197 206 222 232 220 197 204 211 217 212 217 203 217 218 220 229 235 215 222 196 167 171 209 222 223 233 247 223 201 194 210 249 291 272 282
214 210 207 206 197 195 188 191 186 193 196 206 217 234 215 204 212 207 211 194 203 201 205 194 207 229 219 227 226 206 179 204 191 229 230 237 133 131 199 221 255 246 238 252
204 204 196 198 192 190 185 181 184 194 201 209 188 201 228 223 212 209 213 204 190 196 200 198 219 223 203 208 222 225 208 212 228 213 215 235 188 222 225 254 282 249 257 234
192 193 186 186 187 185 179 173 171 174 177 199 197 214 213 202 198 201 243 211 197 206 205 192 209 210 193 198 220 226 223 240 237 244 250 260 248 252 256 264 247 243 230 222
183 180 179 181 178 170 171 165 172 172 143 193 215 212 196 209 217 211 232 247 250 227 205 231 203 220 212 212 228 223 228 208 228 247 255 255 233 251 253 247 237 224 230 217
170 167 169 166 162 159 156 156 167 175 174 179 210 204 219 206 217 216 234 246 255 239 212 166 218 223 237 229 250 237 228 231 221 238 252 255 259 262 255 238 236 221 230 229
156 162 164 152 154 144 137 116 163 175 149 131 177 273 224 212 213 213 222 227 249 253 209 216 236 236 236 233 235 235 245 250 241 253 272 260 255 230 243 203 217 252 229 218
150 156 151 154 149 151 149 149 181 164 168 193 306 280 204 208 212 229 231 225 240 234 229 235 220 223 215 242 241 238 245 244 240 236 255 259 233 246 267 249 224 218 199 205
148 150 157 149 144 117 100 97 153 152 136 163 203 256 303 179 186 215 210 213 224 233 218 216 214 194 228 236 241 244 250 258 271 248 241 266 238 234 308 254 191 148 144 160
137 133 136 136 132 111 87 129 155 156 166 175 193 244 245 320 204 195 177 203 203 230 225 223 214 185 220 214 237 244 238 243 247 248 214 209 167 148 143 145 136 133 140 150
136 128 117 96 135 154 122 120 153 184 221 213 197 159 223 30 338 181 136 184 189 180 220 200 235 233 220 121 54 1 5 186 183 192 208 201 191 153 128 127 129 141 142 140
118 90 75 133 140 144 123 132 172 177 210 210 189 191 178 173 175 251 146 173 180 183 184 201 207 215 199 65 51 29 48 123 146 132 76 90 147 143 130 121 122 131 137 142
97 122 122 132 170 187 163 163 149 199 210 176 185 162 187 176 154 191 184 158 219 184 164 182 206 71 46 64 67 78 94 99 89 89 94 99 107 120 131 129 134 145 142 145
111 84 97 179 159 180 192 147 176 173 220 146 152 143 141 149 190 248 164 188 146 117 175 103 56 66 71 80 89 91 94 98 96 97 102 113 120 127 129 126 129 135 135 138
93 157 136 243 173 249 24 71 75 1 3 135 126 62 272 185 176 206 145 77 146 163 146 92 65 72 87 94 104 103 95 107 105 101 106 110 112 111 114 119 124 127 126 130
38 352 62 46 23 40 29 49 100 95 176 179 182 196 208 239 5 30 80 117 80 32 65 69 77 93 99 100 104 106 105 106 105 108 109 110 114 114 112 114 117 118 119 119
52 39 14 343 198 60 32 22 50 29 69 189 328 160 97 52 57 68 12 73 52 73 61 87 95 94 98 102 106 107 109 109 109 110 111 113 111 109 107 111 112 111 111 110
44 64 26 0 36 35 24 12 2 6 1 59 345 27 40 143 61 64 23 40 72 89 82 88 97 99 103 106 106 104 103 103 102 101 99 100 104 109 109 102 103 105 103 102
Height
1402 1407 1414 1421 1428 1437 1444 1448 1448 1451 1460 1466 1462 1460 1439 1445 1435 1430 1425 1424 1422 1424 1425 1430 1438 1433 1422 1425 1423 1429 1429 1435 1438 1441 1436 1436 1433 1442 1444 1456 1459 1450 1455 1451
1386 1392 1400 1408 1416 1424 1433 1435 1442 1446 1448 1445 1447 1439 1434 1444 1437 1428 1423 1423 1427 1426 1428 1436 1426 1429 1424 1423 1423 1421 1428 1435 1445 1439 1438 1437 1439 1435 1435 1437 1440 1451 1467 1457
1370 1376 1384 1392 1401 1410 1422 1426 1433 1434 1434 1432 1426 1419 1426 1434 1438 1431 1422 1421 1425 1427 1430 1430 1427 1430 1426 1426 1423 1421 1426 1427 1432 1437 1431 1431 1441 1437 1433 1437 1447 1451 1447 1441
1353 1359 1367 1377 1386 1395 1407 1407 1402 1402 1409 1416 1414 1419 1414 1420 1424 1430 1426 1419 1416 1421 1427 1427 1428 1429 1429 1428 1425 1423 1425 1428 1426 1424 1419 1419 1421 1427 1431 1434 1435 1442 1439 1434
1337 1342 1349 1360 1371 1382 1387 1389 1389 1396 1397 1412 1416 1413 1412 1411 1415 1419 1417 1416 1416 1417 1419 1421 1423 1428 1431 1425 1427 1424 1421 1426 1424 1424 1420 1419 1422 1421 1423 1422 1423 1426 1427 1427
1321 1327 1333 1343 1354 1364 1365 1376 1384 1388 1389 1395 1408 1399 1405 1404 1407 1409 1414 1421 1419 1418 1418 1420 1425 1432 1438 1435 1431 1424 1421 1423 1423 1430 1419 1420 1429 1423 1422 1420 1418 1422 1429 1422
1305 1311 1318 1325 1336 1345 1354 1362 1376 1380 1380 1383 1380 1396 1402 1400 1402 1405 1410 1414 1417 1418 1422 1424 1430 1433 1432 1435 1436 1431 1424 1422 1420 1431 1439 1441 1420 1417 1416 1418 1415 1415 1415 1416
1287 1295 1303 1310 1321 1334 1347 1356 1365 1370 1374 1373 1380 1384 1395 1403 1404 1405 1409 1409 1414 1422 1421 1422 1431 1439 1442 1438 1435 1431 1427 1425 1426 1434 1429 1423 1413 1418 1418 1417 1416 1410 1410 1411
1269 1279 1289 1299 1309 1323 1338 1349 1362 1368 1372 1361 1371 1378 1390 1394 1398 1404 1405 1409 1414 1416 1416 1421 1421 1421 1419 1423 1430 1421 1419 1423 1426 1430 1431 1431 1414 1408 1411 1410 1417 1405 1406 1406
1252 1264 1277 1288 1300 1313 1330 1341 1355 1365 1364 1372 1372 1379 1384 1389 1394 1398 1400 1406 1409 1414 1413 1421 1420 1410 1402 1407 1419 1429 1427 1429 1428 1424 1425 1408 1397 1401 1404 1422 1415 1400 1403 1405
1238 1252 1266 1278 1289 1305 1322 1332 1347 1356 1363 1368 1373 1377 1379 1386 1389 1392 1394 1403 1406 1409 1413 1418 1409 1403 1397 1399 1396 1401 1420 1423 1424 1421 1426 1428 1402 1406 1409 1402 1400 1402 1404 1404
1228 1243 1258 1271 1283 1301 1319 1330 1346 1357 1365 1371 1371 1375 1377 1377 1383 1389 1389 1385 1391 1391 1398 1400 1402 1398 1394 1395 1400 1391 1403 1405 1407 1404 1402 1397 1398 1396 1396 1398 1398 1399 1402 1403
1222 1237 1255 1269 1283 1299 1314 1329 1342 1355 1364 1370 1372 1375 1377 1378 1380 1388 1391 1388 1383 1387 1390 1392 1395 1398 1392 1399 1394 1391 1389 1391 1394 1398 1393 1393 1395 1396 1397 1397 1399 1400 1401 1402
1222 1238 1256 1271 1285 1300 1316 1327 1340 1351 1361 1368 1369 1373 1375 1379 1379 1383 1387 1388 1382 1385 1388 1389 1390 1393 1382 1387 1386 1385 1386 1387 1391 1388 1388 1388 1390 1392 1393 1395 1396 1397 1399 1399
1227 1245 1261 1276 1289 1304 1319 1332 1343 1353 1362 1363 1368 1371 1374 1376 1379 1380 1386 1386 1387 1388 1385 1387 1391 1384 1381 1381 1381 1379 1381 1381 1383 1387 1385 1385 1384 1388 1390 1390 1392 1392 1395 1397
1239 1254 1270 1277 1290 1305 1317 1336 1346 1354 1357 1364 1367 1368 1366 1371 1375 1380 1383 1385 1386 1384 1379 1385 1386 1384 1383 1384 1380 1379 1379 1378 1380 1380 1383 1384 1384 1384 1384 1385 1388 1392 1390 1391
1249 1262 1270 1285 1299 1316 1327 1335 1338 1349 1359 1364 1365 1361 1360 1365 1371 1374 1377 1381 1383 1384 1380 1379 1380 1381 1381 1381 1378 1374 1373 1373 1374 1378 1383 1383 1383 1383 1383 1384 1385 1385 1387 1390
1261 1270 1284 1300 1311 1322 1333 1337 1341 1350 1359 1365 1365 1361 1359 1362 1364 1369 1371 1375 1380 1378 1378 1377 1376 1378 1380 1374 1370 1372 1372 1372 1375 1379 1383 1383 1382 1382 1383 1383 1385 1386 1387 1391
1273 1285 1296 1307 1321 1329 1336 1340 1348 1354 1359 1359 1362 1357 1356 1358 1357 1358 1365 1373 1373 1373 1370 1374 1373 1372 1371 1365 1365 1366 1366 1368 1372 1377 1379 1380 1380 1382 1383 1385 1386 1388 1391 1395
1289 1301 1312 1323 1330 1335 1341 1350 1353 1356 1355 1354 1356 1355 1354 1358 1358 1354 1361 1363 1366 1371 1371 1370 1369 1360 1361 1364 1365 1366 1367 1369 1373 1377 1378 1378 1379 1381 1383 1385 1387 1390 1394 1397
1305 1311 1318 1327 1333 1337 1339 1343 1347 1349 1347 1346 1347 1351 1350 1355 1359 1354 1354 1360 1359 1361 1358 1360 1355 1355 1358 1364 1366 1368 1370 1372 1374 1376 1376 1377 1378 1381 1384 1387 1390 1393 1396 1397
1309 1312 1323 1332 1335 1335 1336 1338 1342 1342 1338 1339 1339 1343 1346 1348 1349 1354 1350 1347 1353 1346 1350 1353 1350 1366 1367 1367 1369 1371 1373 1375 1375 1376 1378 1379 1380 1383 1384 1386 1389 1393 1395 1400
1318 1322 1328 1331 1334 1332 1330 1333 1331 1332 1330 1332 1336 1340 1342 1344 1345 1347 1344 1342 1344 1349 1349 1354 1366 1370 1371 1371 1372 1373 1375 1376 1376 1377 1379 1379 1382 1385 1387 1390 1394 1396 1399 1404
1323 1326 1328 1328 1330 1325 1324 1322 1325 1325 1325 1328 1329 1336 1337 1338 1341 1339 1338 1345 1347 1343 1344 1359 1372 1374 1374 1373 1374 1374 1376 1377 1378 1378 1381 1384 1387 1389 1393 1397 1400 1401 1405 1411
1324 1325 1327 1328 1333 1334 1336 1336 1337 1338 1337 1335 1334 1335 1334 1334 1331 1332 1335 1340 1344 1349 1357 1370 1377 1376 1376 1376 1377 1378 1380 1382 1382 1384 1387 1391 1395 1397 1400 1405 1408 1412 1415 1419
1331 1336 1335 1338 1335 1336 1337 1338 1337 1337 1336 1336 1335 1333 1334 1335 1336 1340 1346 1342 1352 1366 1373 1377 1378 1378 1379 1380 1382 1384 1386 1387 1389 1393 1396 1399 1402 1405 1409 1413 1417 1420 1423 1426
1337 1343 1343 1339 1339 1342 1344 1343 1341 1338 1338 1337 1336 1334 1337 1340 1343 1351 1358 1366 1373 1377 1380 1381 1383 1384 1387 1389 1390 1392 1394 1397 1399 1402 1406 1408 1412 1415 1418 1420 1425 1428 1430 1432